owner,sensor,date,latitude,longitude,vertical_datum,mass_concentration_of_oxygen_in_sea_water,qcFlag 
DISL,ioos:station:DISL:PPTA:1,2014-04-01T00:00:00Z,30.2791,-87.5561,1.067,9.12,1111122 
DISL,ioos:station:DISL:PPTA:1,2014-04-01T00:30:00Z,30.2791,-87.5561,1.065,8.9,1111122 
DISL,ioos:station:DISL:PPTA:1,2014-04-01T01:00:00Z,30.2791,-87.5561,1.064,8.66,1111122 
DISL,ioos:station:DISL:PPTA:1,2014-04-01T01:30:00Z,30.2791,-87.5561,1.058,8.75,1111122 
DISL,ioos:station:DISL:PPTA:1,2014-04-01T02:00:00Z,30.2791,-87.5561,1.056,8.95,1111122 
DISL,ioos:station:DISL:PPTA:1,2014-04-01T02:30:00Z,30.2791,-87.5561,1.071,8.74,1111122 
DISL,ioos:station:DISL:PPTA:1,2014-04-01T03:00:00Z,30.2791,-87.5561,1.064,8.44,1111122 
DISL,ioos:station:DISL:PPTA:1,2014-04-01T03:30:00Z,30.2791,-87.5561,1.055,8.61,1111122 
DISL,ioos:station:DISL:PPTA:1,2014-04-01T04:00:00Z,30.2791,-87.5561,1.08,8.45,1111122 
DISL,ioos:station:DISL:PPTA:1,2014-04-01T04:30:00Z,30.2791,-87.5561,1.072,8.58,1111122 
DISL,ioos:station:DISL:PPTA:1,2014-04-01T05:00:00Z,30.2791,-87.5561,1.081,8.43,1111122 
DISL,ioos:station:DISL:PPTA:1,2014-04-01T05:30:00Z,30.2791,-87.5561,1.076,7.47,1111122 
DISL,ioos:station:DISL:PPTA:1,2014-04-01T06:00:00Z,30.2791,-87.5561,1.068,7.66,1111122 
DISL,ioos:station:DISL:PPTA:1,2014-04-01T06:30:00Z,30.2791,-87.5561,1.081,7.61,1111122 
DISL,ioos:station:DISL:PPTA:1,2014-04-01T07:00:00Z,30.2791,-87.5561,1.085,7.5,1111122 
DISL,ioos:station:DISL:PPTA:1,2014-04-01T07:30:00Z,30.2791,-87.5561,1.087,7.38,1111122 
DISL,ioos:station:DISL:PPTA:1,2014-04-01T08:00:00Z,30.2791,-87.5561,1.096,7.17,1111122 
DISL,ioos:station:DISL:PPTA:1,2014-04-01T08:30:00Z,30.2791,-87.5561,1.111,7.34,1111122 
DISL,ioos:station:DISL:PPTA:1,2014-04-01T09:00:00Z,30.2791,-87.5561,1.12,7.26,1111122 
DISL,ioos:station:DISL:PPTA:1,2014-04-01T09:30:00Z,30.2791,-87.5561,1.13,7.36,1111122 
DISL,ioos:station:DISL:PPTA:1,2014-04-01T10:00:00Z,30.2791,-87.5561,1.138,7.41,1111122 
DISL,ioos:station:DISL:PPTA:1,2014-04-01T10:30:00Z,30.2791,-87.5561,1.159,7.44,1111122 
DISL,ioos:station:DISL:PPTA:1,2014-04-01T11:00:00Z,30.2791,-87.5561,1.162,7.4,1111122 
DISL,ioos:station:DISL:PPTA:1,2014-04-01T11:30:00Z,30.2791,-87.5561,1.197,7.32,1111122 
DISL,ioos:station:DISL:PPTA:1,2014-04-01T12:00:00Z,30.2791,-87.5561,1.222,7.27,1111122 
DISL,ioos:station:DISL:PPTA:1,2014-04-01T12:30:00Z,30.2791,-87.5561,1.219,7.35,1111122 
DISL,ioos:station:DISL:PPTA:1,2014-04-01T13:00:00Z,30.2791,-87.5561,1.251,7.38,1111122 
DISL,ioos:station:DISL:PPTA:1,2014-04-01T13:30:00Z,30.2791,-87.5561,1.27,7.31,1111122 
DISL,ioos:station:DISL:PPTA:1,2014-04-01T14:00:00Z,30.2791,-87.5561,1.262,7.22,1111122 
DISL,ioos:station:DISL:PPTA:1,2014-04-01T14:30:00Z,30.2791,-87.5561,1.278,7.59,1111122 
DISL,ioos:station:DISL:PPTA:1,2014-04-01T15:00:00Z,30.2791,-87.5561,1.266,7.58,1111122 
DISL,ioos:station:DISL:PPTA:1,2014-04-01T15:30:00Z,30.2791,-87.5561,1.282,7.75,1111122 
DISL,ioos:station:DISL:PPTA:1,2014-04-01T16:00:00Z,30.2791,-87.5561,1.284,7.52,1111122 
DISL,ioos:station:DISL:PPTA:1,2014-04-01T16:30:00Z,30.2791,-87.5561,1.295,8.01,1111122 
DISL,ioos:station:DISL:PPTA:1,2014-04-01T17:00:00Z,30.2791,-87.5561,1.287,7.89,1111122 
DISL,ioos:station:DISL:PPTA:1,2014-04-01T17:30:00Z,30.2791,-87.5561,1.285,7.65,1111122 
DISL,ioos:station:DISL:PPTA:1,2014-04-01T18:00:00Z,30.2791,-87.5561,1.302,8.33,1111122 
DISL,ioos:station:DISL:PPTA:1,2014-04-01T18:30:00Z,30.2791,-87.5561,1.276,8.57,1111122 
DISL,ioos:station:DISL:PPTA:1,2014-04-01T19:00:00Z,30.2791,-87.5561,1.272,8.3,1111122 
DISL,ioos:station:DISL:PPTA:1,2014-04-01T19:30:00Z,30.2791,-87.5561,1.255,8.14,1111122 
DISL,ioos:station:DISL:PPTA:1,2014-04-01T20:00:00Z,30.2791,-87.5561,1.217,8.19,1111122 
DISL,ioos:station:DISL:PPTA:1,2014-04-01T20:30:00Z,30.2791,-87.5561,1.218,8.2,1111122 
DISL,ioos:station:DISL:PPTA:1,2014-04-01T21:00:00Z,30.2791,-87.5561,1.186,8.38,1111122 
DISL,ioos:station:DISL:PPTA:1,2014-04-01T21:30:00Z,30.2791,-87.5561,1.182,8.57,1111122 
DISL,ioos:station:DISL:PPTA:1,2014-04-01T22:00:00Z,30.2791,-87.5561,1.188,8.43,1111122 
DISL,ioos:station:DISL:PPTA:1,2014-04-01T22:30:00Z,30.2791,-87.5561,1.167,8.57,1111122 
DISL,ioos:station:DISL:PPTA:1,2014-04-01T23:00:00Z,30.2791,-87.5561,1.161,8.31,1111122 
DISL,ioos:station:DISL:PPTA:1,2014-04-01T23:30:00Z,30.2791,-87.5561,1.15,8.73,1111122 
DISL,ioos:station:DISL:PPTA:1,2014-04-02T00:00:00Z,30.2791,-87.5561,1.135,8.81,1111122 
DISL,ioos:station:DISL:PPTA:1,2014-04-02T00:30:00Z,30.2791,-87.5561,1.154,8.9,1111122 
DISL,ioos:station:DISL:PPTA:1,2014-04-02T01:00:00Z,30.2791,-87.5561,1.127,8.77,1111122 
DISL,ioos:station:DISL:PPTA:1,2014-04-02T01:30:00Z,30.2791,-87.5561,1.123,8.89,1111122 
DISL,ioos:station:DISL:PPTA:1,2014-04-02T02:00:00Z,30.2791,-87.5561,1.147,8.67,1111122 
DISL,ioos:station:DISL:PPTA:1,2014-04-02T02:30:00Z,30.2791,-87.5561,1.119,8.82,1111122 
DISL,ioos:station:DISL:PPTA:1,2014-04-02T03:00:00Z,30.2791,-87.5561,1.135,8.81,1111122 
DISL,ioos:station:DISL:PPTA:1,2014-04-02T03:30:00Z,30.2791,-87.5561,1.115,8.79,1111122 
DISL,ioos:station:DISL:PPTA:1,2014-04-02T04:00:00Z,30.2791,-87.5561,1.12,8.63,1111122 
DISL,ioos:station:DISL:PPTA:1,2014-04-02T04:30:00Z,30.2791,-87.5561,1.127,8.58,1111122 
DISL,ioos:station:DISL:PPTA:1,2014-04-02T05:00:00Z,30.2791,-87.5561,1.121,8.45,1111122 
DISL,ioos:station:DISL:PPTA:1,2014-04-02T05:30:00Z,30.2791,-87.5561,1.128,8.39,1111122 
DISL,ioos:station:DISL:PPTA:1,2014-04-02T06:00:00Z,30.2791,-87.5561,1.127,8.42,1111122 
DISL,ioos:station:DISL:PPTA:1,2014-04-02T06:30:00Z,30.2791,-87.5561,1.127,8.41,1111122 
DISL,ioos:station:DISL:PPTA:1,2014-04-02T07:00:00Z,30.2791,-87.5561,1.141,8.35,1111122 
DISL,ioos:station:DISL:PPTA:1,2014-04-02T07:30:00Z,30.2791,-87.5561,1.146,8.44,1111122 
DISL,ioos:station:DISL:PPTA:1,2014-04-02T08:00:00Z,30.2791,-87.5561,1.128,7.16,1111122 
DISL,ioos:station:DISL:PPTA:1,2014-04-02T08:30:00Z,30.2791,-87.5561,1.132,7.16,1111122 
DISL,ioos:station:DISL:PPTA:1,2014-04-02T09:00:00Z,30.2791,-87.5561,1.132,7.33,1111122 
DISL,ioos:station:DISL:PPTA:1,2014-04-02T09:30:00Z,30.2791,-87.5561,1.149,7.55,1111122 
DISL,ioos:station:DISL:PPTA:1,2014-04-02T10:00:00Z,30.2791,-87.5561,1.152,7.54,1111122 
DISL,ioos:station:DISL:PPTA:1,2014-04-02T10:30:00Z,30.2791,-87.5561,1.169,7.5,1111122 
DISL,ioos:station:DISL:PPTA:1,2014-04-02T11:00:00Z,30.2791,-87.5561,1.194,7.52,1111122 
DISL,ioos:station:DISL:PPTA:1,2014-04-02T11:30:00Z,30.2791,-87.5561,1.21,7.41,1111122 
DISL,ioos:station:DISL:PPTA:1,2014-04-02T12:00:00Z,30.2791,-87.5561,1.241,6.89,1111122 
DISL,ioos:station:DISL:PPTA:1,2014-04-02T12:30:00Z,30.2791,-87.5561,1.271,7.22,1111122 
DISL,ioos:station:DISL:PPTA:1,2014-04-02T13:00:00Z,30.2791,-87.5561,1.268,7.36,1111122 
DISL,ioos:station:DISL:PPTA:1,2014-04-02T13:30:00Z,30.2791,-87.5561,1.291,7.62,1111122 
DISL,ioos:station:DISL:PPTA:1,2014-04-02T14:00:00Z,30.2791,-87.5561,1.301,7.47,1111122 
DISL,ioos:station:DISL:PPTA:1,2014-04-02T14:30:00Z,30.2791,-87.5561,1.302,7.57,1111122 
DISL,ioos:station:DISL:PPTA:1,2014-04-02T15:00:00Z,30.2791,-87.5561,1.312,7.62,1111122 
DISL,ioos:station:DISL:PPTA:1,2014-04-02T15:30:00Z,30.2791,-87.5561,1.319,7.55,1111122 
DISL,ioos:station:DISL:PPTA:1,2014-04-02T16:00:00Z,30.2791,-87.5561,1.324,8.03,1111122 
DISL,ioos:station:DISL:PPTA:1,2014-04-02T16:30:00Z,30.2791,-87.5561,1.318,7.91,1111122 
DISL,ioos:station:DISL:PPTA:1,2014-04-02T17:00:00Z,30.2791,-87.5561,1.317,7.67,1111122 
DISL,ioos:station:DISL:PPTA:1,2014-04-02T17:30:00Z,30.2791,-87.5561,1.321,8.12,1111122 
DISL,ioos:station:DISL:PPTA:1,2014-04-02T18:00:00Z,30.2791,-87.5561,1.317,8.13,1111122 
DISL,ioos:station:DISL:PPTA:1,2014-04-02T18:30:00Z,30.2791,-87.5561,1.319,8.19,1111122 
DISL,ioos:station:DISL:PPTA:1,2014-04-02T19:00:00Z,30.2791,-87.5561,1.312,8.44,1111122 
DISL,ioos:station:DISL:PPTA:1,2014-04-02T19:30:00Z,30.2791,-87.5561,1.299,8.44,1111122 
DISL,ioos:station:DISL:PPTA:1,2014-04-02T20:00:00Z,30.2791,-87.5561,1.297,8.39,1111122 
DISL,ioos:station:DISL:PPTA:1,2014-04-02T20:30:00Z,30.2791,-87.5561,1.28,8.23,1111122 
DISL,ioos:station:DISL:PPTA:1,2014-04-02T21:00:00Z,30.2791,-87.5561,1.254,8.72,1111122 
DISL,ioos:station:DISL:PPTA:1,2014-04-02T21:30:00Z,30.2791,-87.5561,1.249,8.4,1111122 
DISL,ioos:station:DISL:PPTA:1,2014-04-02T22:00:00Z,30.2791,-87.5561,1.233,8.48,1111122 
DISL,ioos:station:DISL:PPTA:1,2014-04-02T22:30:00Z,30.2791,-87.5561,1.221,8.64,1111122 
DISL,ioos:station:DISL:PPTA:1,2014-04-02T23:00:00Z,30.2791,-87.5561,1.196,8.55,1111122 
DISL,ioos:station:DISL:PPTA:1,2014-04-02T23:30:00Z,30.2791,-87.5561,1.183,8.44,1111122 
DISL,ioos:station:DISL:PPTA:1,2014-04-03T00:00:00Z,30.2791,-87.5561,1.177,8.3,1111122 
DISL,ioos:station:DISL:PPTA:1,2014-04-03T00:30:00Z,30.2791,-87.5561,1.158,8.25,1111122 
DISL,ioos:station:DISL:PPTA:1,2014-04-03T01:00:00Z,30.2791,-87.5561,1.151,8.28,1111122 
DISL,ioos:station:DISL:PPTA:1,2014-04-03T01:30:00Z,30.2791,-87.5561,1.144,8.43,1111122 
DISL,ioos:station:DISL:PPTA:1,2014-04-03T02:00:00Z,30.2791,-87.5561,1.139,8.13,1111122 
DISL,ioos:station:DISL:PPTA:1,2014-04-03T02:30:00Z,30.2791,-87.5561,1.132,8.47,1111122 
DISL,ioos:station:DISL:PPTA:1,2014-04-03T03:00:00Z,30.2791,-87.5561,1.122,8.36,1111122 
DISL,ioos:station:DISL:PPTA:1,2014-04-03T03:30:00Z,30.2791,-87.5561,1.113,8.17,1111122 
DISL,ioos:station:DISL:PPTA:1,2014-04-03T04:00:00Z,30.2791,-87.5561,1.117,7.96,1111122 
DISL,ioos:station:DISL:PPTA:1,2014-04-03T04:30:00Z,30.2791,-87.5561,1.119,8.31,1111122 
DISL,ioos:station:DISL:PPTA:1,2014-04-03T05:00:00Z,30.2791,-87.5561,1.118,8.32,1111122 
DISL,ioos:station:DISL:PPTA:1,2014-04-03T05:30:00Z,30.2791,-87.5561,1.102,7.94,1111122 
DISL,ioos:station:DISL:PPTA:1,2014-04-03T06:00:00Z,30.2791,-87.5561,1.109,7.89,1111122 
DISL,ioos:station:DISL:PPTA:1,2014-04-03T06:30:00Z,30.2791,-87.5561,1.112,7.98,1111122 
DISL,ioos:station:DISL:PPTA:1,2014-04-03T07:00:00Z,30.2791,-87.5561,1.117,7.88,1111122 
DISL,ioos:station:DISL:PPTA:1,2014-04-03T07:30:00Z,30.2791,-87.5561,1.131,7.97,1111122 
DISL,ioos:station:DISL:PPTA:1,2014-04-03T08:00:00Z,30.2791,-87.5561,1.107,7.91,1111122 
DISL,ioos:station:DISL:PPTA:1,2014-04-03T08:30:00Z,30.2791,-87.5561,1.114,7.68,1111122 
DISL,ioos:station:DISL:PPTA:1,2014-04-03T09:00:00Z,30.2791,-87.5561,1.122,8.01,1111122 
DISL,ioos:station:DISL:PPTA:1,2014-04-03T09:30:00Z,30.2791,-87.5561,1.131,7.14,1111122 
DISL,ioos:station:DISL:PPTA:1,2014-04-03T10:00:00Z,30.2791,-87.5561,1.13,7.43,1111122 
DISL,ioos:station:DISL:PPTA:1,2014-04-03T10:30:00Z,30.2791,-87.5561,1.139,7.32,1111122 
DISL,ioos:station:DISL:PPTA:1,2014-04-03T11:00:00Z,30.2791,-87.5561,1.16,7.29,1111122 
DISL,ioos:station:DISL:PPTA:1,2014-04-03T11:30:00Z,30.2791,-87.5561,1.17,7.28,1111122 
DISL,ioos:station:DISL:PPTA:1,2014-04-03T12:00:00Z,30.2791,-87.5561,1.192,7.29,1111122 
DISL,ioos:station:DISL:PPTA:1,2014-04-03T12:30:00Z,30.2791,-87.5561,1.214,7.38,1111122 
DISL,ioos:station:DISL:PPTA:1,2014-04-03T13:00:00Z,30.2791,-87.5561,1.218,7.03,1111122 
DISL,ioos:station:DISL:PPTA:1,2014-04-03T13:30:00Z,30.2791,-87.5561,1.249,7.3,1111122 
DISL,ioos:station:DISL:PPTA:1,2014-04-03T14:00:00Z,30.2791,-87.5561,1.271,7.31,1111122 
DISL,ioos:station:DISL:PPTA:1,2014-04-03T14:30:00Z,30.2791,-87.5561,1.274,7.4,1111122 
DISL,ioos:station:DISL:PPTA:1,2014-04-03T15:00:00Z,30.2791,-87.5561,1.303,7.26,1111122 
DISL,ioos:station:DISL:PPTA:1,2014-04-03T15:30:00Z,30.2791,-87.5561,1.31,7.49,1111122 
DISL,ioos:station:DISL:PPTA:1,2014-04-03T16:00:00Z,30.2791,-87.5561,1.326,7.55,1111122 
DISL,ioos:station:DISL:PPTA:1,2014-04-03T16:30:00Z,30.2791,-87.5561,1.325,7.4,1111122 
DISL,ioos:station:DISL:PPTA:1,2014-04-03T17:00:00Z,30.2791,-87.5561,1.329,7.86,1111122 
DISL,ioos:station:DISL:PPTA:1,2014-04-03T17:30:00Z,30.2791,-87.5561,1.329,7.52,1111122 
DISL,ioos:station:DISL:PPTA:1,2014-04-03T18:00:00Z,30.2791,-87.5561,1.35,8.28,1111122 
DISL,ioos:station:DISL:PPTA:1,2014-04-03T18:30:00Z,30.2791,-87.5561,1.349,8.02,1111122 
DISL,ioos:station:DISL:PPTA:1,2014-04-03T19:00:00Z,30.2791,-87.5561,1.329,7.97,1111122 
DISL,ioos:station:DISL:PPTA:1,2014-04-03T19:30:00Z,30.2791,-87.5561,1.335,8.01,1111122 
DISL,ioos:station:DISL:PPTA:1,2014-04-03T20:00:00Z,30.2791,-87.5561,1.342,8.3,1111122 
DISL,ioos:station:DISL:PPTA:1,2014-04-03T20:30:00Z,30.2791,-87.5561,1.309,8.35,1111122 
DISL,ioos:station:DISL:PPTA:1,2014-04-03T21:00:00Z,30.2791,-87.5561,1.319,8.29,1111122 
DISL,ioos:station:DISL:PPTA:1,2014-04-03T21:30:00Z,30.2791,-87.5561,1.313,8.09,1111122 
DISL,ioos:station:DISL:PPTA:1,2014-04-03T22:00:00Z,30.2791,-87.5561,1.297,8.12,1111122 
DISL,ioos:station:DISL:PPTA:1,2014-04-03T22:30:00Z,30.2791,-87.5561,1.282,7.98,1111122 
DISL,ioos:station:DISL:PPTA:1,2014-04-03T23:00:00Z,30.2791,-87.5561,1.279,8.28,1111122 
DISL,ioos:station:DISL:PPTA:1,2014-04-03T23:30:00Z,30.2791,-87.5561,1.271,8.29,1111122 
DISL,ioos:station:DISL:PPTA:1,2014-04-04T00:00:00Z,30.2791,-87.5561,1.263,8.33,1111122 
DISL,ioos:station:DISL:PPTA:1,2014-04-04T00:30:00Z,30.2791,-87.5561,1.252,8.28,1111122 
DISL,ioos:station:DISL:PPTA:1,2014-04-04T01:00:00Z,30.2791,-87.5561,1.24,8.24,1111122 
DISL,ioos:station:DISL:PPTA:1,2014-04-04T01:30:00Z,30.2791,-87.5561,1.236,8.13,1111122 
DISL,ioos:station:DISL:PPTA:1,2014-04-04T02:00:00Z,30.2791,-87.5561,1.217,8.28,1111122 
DISL,ioos:station:DISL:PPTA:1,2014-04-04T02:30:00Z,30.2791,-87.5561,1.216,8.16,1111122 
DISL,ioos:station:DISL:PPTA:1,2014-04-04T03:00:00Z,30.2791,-87.5561,1.212,8.14,1111122 
DISL,ioos:station:DISL:PPTA:1,2014-04-04T03:30:00Z,30.2791,-87.5561,1.206,8.13,1111122 
DISL,ioos:station:DISL:PPTA:1,2014-04-04T04:00:00Z,30.2791,-87.5561,1.199,8.14,1111122 
DISL,ioos:station:DISL:PPTA:1,2014-04-04T04:30:00Z,30.2791,-87.5561,1.194,7.82,1111122 
DISL,ioos:station:DISL:PPTA:1,2014-04-04T05:00:00Z,30.2791,-87.5561,1.196,7.97,1111122 
DISL,ioos:station:DISL:PPTA:1,2014-04-04T05:30:00Z,30.2791,-87.5561,1.183,7.85,1111122 
DISL,ioos:station:DISL:PPTA:1,2014-04-04T06:00:00Z,30.2791,-87.5561,1.186,7.67,1111122 
DISL,ioos:station:DISL:PPTA:1,2014-04-04T06:30:00Z,30.2791,-87.5561,1.183,7.63,1111122 
DISL,ioos:station:DISL:PPTA:1,2014-04-04T07:00:00Z,30.2791,-87.5561,1.194,7.8,1111122 
DISL,ioos:station:DISL:PPTA:1,2014-04-04T07:30:00Z,30.2791,-87.5561,1.198,7.52,1111122 
DISL,ioos:station:DISL:PPTA:1,2014-04-04T08:00:00Z,30.2791,-87.5561,1.187,7.81,1111122 
DISL,ioos:station:DISL:PPTA:1,2014-04-04T08:30:00Z,30.2791,-87.5561,1.197,7.46,1111122 
DISL,ioos:station:DISL:PPTA:1,2014-04-04T09:00:00Z,30.2791,-87.5561,1.204,7.48,1111122 
DISL,ioos:station:DISL:PPTA:1,2014-04-04T09:30:00Z,30.2791,-87.5561,1.201,7.34,1111122 
DISL,ioos:station:DISL:PPTA:1,2014-04-04T10:00:00Z,30.2791,-87.5561,1.209,7.0,1111122 
DISL,ioos:station:DISL:PPTA:1,2014-04-04T10:30:00Z,30.2791,-87.5561,1.207,6.93,1111122 
DISL,ioos:station:DISL:PPTA:1,2014-04-04T11:00:00Z,30.2791,-87.5561,1.229,7.42,1111122 
DISL,ioos:station:DISL:PPTA:1,2014-04-04T11:30:00Z,30.2791,-87.5561,1.252,7.52,1111122 
DISL,ioos:station:DISL:PPTA:1,2014-04-04T12:00:00Z,30.2791,-87.5561,1.262,7.11,1111122 
DISL,ioos:station:DISL:PPTA:1,2014-04-04T12:30:00Z,30.2791,-87.5561,1.28,7.06,1111122 
DISL,ioos:station:DISL:PPTA:1,2014-04-04T13:00:00Z,30.2791,-87.5561,1.297,7.16,1111122 
DISL,ioos:station:DISL:PPTA:1,2014-04-04T13:30:00Z,30.2791,-87.5561,1.332,7.13,1111122 
DISL,ioos:station:DISL:PPTA:1,2014-04-04T14:00:00Z,30.2791,-87.5561,1.339,7.32,1111122 
DISL,ioos:station:DISL:PPTA:1,2014-04-04T14:30:00Z,30.2791,-87.5561,1.35,7.52,1111122 
DISL,ioos:station:DISL:PPTA:1,2014-04-04T15:00:00Z,30.2791,-87.5561,1.357,7.3,1111122 
DISL,ioos:station:DISL:PPTA:1,2014-04-04T15:30:00Z,30.2791,-87.5561,1.377,7.51,1111122 
DISL,ioos:station:DISL:PPTA:1,2014-04-04T16:00:00Z,30.2791,-87.5561,1.386,7.56,1111122 
DISL,ioos:station:DISL:PPTA:1,2014-04-04T16:30:00Z,30.2791,-87.5561,1.386,7.55,1111122 
DISL,ioos:station:DISL:PPTA:1,2014-04-04T17:00:00Z,30.2791,-87.5561,1.42,7.74,1111122 
DISL,ioos:station:DISL:PPTA:1,2014-04-04T17:30:00Z,30.2791,-87.5561,1.414,7.79,1111122 
DISL,ioos:station:DISL:PPTA:1,2014-04-04T18:00:00Z,30.2791,-87.5561,1.418,7.91,1111122 
DISL,ioos:station:DISL:PPTA:1,2014-04-04T18:30:00Z,30.2791,-87.5561,1.404,8.06,1111122 
DISL,ioos:station:DISL:PPTA:1,2014-04-04T19:00:00Z,30.2791,-87.5561,1.399,7.82,1111122 
DISL,ioos:station:DISL:PPTA:1,2014-04-04T19:30:00Z,30.2791,-87.5561,1.413,7.82,1111122 
DISL,ioos:station:DISL:PPTA:1,2014-04-04T20:00:00Z,30.2791,-87.5561,1.418,7.89,1111122 
DISL,ioos:station:DISL:PPTA:1,2014-04-04T20:30:00Z,30.2791,-87.5561,1.438,7.71,1111122 
DISL,ioos:station:DISL:PPTA:1,2014-04-04T21:00:00Z,30.2791,-87.5561,1.416,8.11,1111122 
DISL,ioos:station:DISL:PPTA:1,2014-04-04T21:30:00Z,30.2791,-87.5561,1.399,7.99,1111122 
DISL,ioos:station:DISL:PPTA:1,2014-04-04T22:00:00Z,30.2791,-87.5561,1.416,7.6,1111122 
DISL,ioos:station:DISL:PPTA:1,2014-04-04T22:30:00Z,30.2791,-87.5561,1.393,7.53,1111122 
DISL,ioos:station:DISL:PPTA:1,2014-04-04T23:00:00Z,30.2791,-87.5561,1.391,7.92,1111122 
DISL,ioos:station:DISL:PPTA:1,2014-04-04T23:30:00Z,30.2791,-87.5561,1.358,7.63,1111122 
DISL,ioos:station:DISL:PPTA:1,2014-04-05T00:00:00Z,30.2791,-87.5561,1.327,8.05,1111122 
DISL,ioos:station:DISL:PPTA:1,2014-04-05T00:30:00Z,30.2791,-87.5561,1.289,8.18,1111122 
DISL,ioos:station:DISL:PPTA:1,2014-04-05T01:00:00Z,30.2791,-87.5561,1.28,8.18,1111122 
DISL,ioos:station:DISL:PPTA:1,2014-04-05T01:30:00Z,30.2791,-87.5561,1.281,8.19,1111122 
DISL,ioos:station:DISL:PPTA:1,2014-04-05T02:00:00Z,30.2791,-87.5561,1.283,7.9,1111122 
DISL,ioos:station:DISL:PPTA:1,2014-04-05T02:30:00Z,30.2791,-87.5561,1.279,8.09,1111122 
DISL,ioos:station:DISL:PPTA:1,2014-04-05T03:00:00Z,30.2791,-87.5561,1.268,8.02,1111122 
DISL,ioos:station:DISL:PPTA:1,2014-04-05T03:30:00Z,30.2791,-87.5561,1.254,7.85,1111122 
DISL,ioos:station:DISL:PPTA:1,2014-04-05T04:00:00Z,30.2791,-87.5561,1.233,7.89,1111122 
DISL,ioos:station:DISL:PPTA:1,2014-04-05T04:30:00Z,30.2791,-87.5561,1.213,7.86,1111122 
DISL,ioos:station:DISL:PPTA:1,2014-04-05T05:00:00Z,30.2791,-87.5561,1.202,7.59,1111122 
DISL,ioos:station:DISL:PPTA:1,2014-04-05T05:30:00Z,30.2791,-87.5561,1.196,8.04,1111122 
DISL,ioos:station:DISL:PPTA:1,2014-04-05T06:00:00Z,30.2791,-87.5561,1.219,7.99,1111122 
DISL,ioos:station:DISL:PPTA:1,2014-04-05T06:30:00Z,30.2791,-87.5561,1.211,7.86,1111122 
DISL,ioos:station:DISL:PPTA:1,2014-04-05T07:00:00Z,30.2791,-87.5561,1.199,7.75,1111122 
DISL,ioos:station:DISL:PPTA:1,2014-04-05T07:30:00Z,30.2791,-87.5561,1.19,7.87,1111122 
DISL,ioos:station:DISL:PPTA:1,2014-04-05T08:00:00Z,30.2791,-87.5561,1.175,7.71,1111122 
DISL,ioos:station:DISL:PPTA:1,2014-04-05T08:30:00Z,30.2791,-87.5561,1.221,7.36,1111122 
DISL,ioos:station:DISL:PPTA:1,2014-04-05T09:00:00Z,30.2791,-87.5561,1.186,7.32,1111122 
DISL,ioos:station:DISL:PPTA:1,2014-04-05T09:30:00Z,30.2791,-87.5561,1.168,7.29,1111122 
DISL,ioos:station:DISL:PPTA:1,2014-04-05T10:00:00Z,30.2791,-87.5561,1.214,7.39,1111122 
DISL,ioos:station:DISL:PPTA:1,2014-04-05T10:30:00Z,30.2791,-87.5561,1.242,7.4,1111122 
DISL,ioos:station:DISL:PPTA:1,2014-04-05T11:00:00Z,30.2791,-87.5561,1.188,7.0,1111122 
DISL,ioos:station:DISL:PPTA:1,2014-04-05T11:30:00Z,30.2791,-87.5561,1.192,6.89,1111122 
DISL,ioos:station:DISL:PPTA:1,2014-04-05T12:00:00Z,30.2791,-87.5561,1.246,7.01,1111122 
DISL,ioos:station:DISL:PPTA:1,2014-04-05T12:30:00Z,30.2791,-87.5561,1.22,6.28,1111122 
DISL,ioos:station:DISL:PPTA:1,2014-04-05T13:00:00Z,30.2791,-87.5561,1.251,6.58,1111122 
DISL,ioos:station:DISL:PPTA:1,2014-04-05T13:30:00Z,30.2791,-87.5561,1.259,7.2,1111122 
DISL,ioos:station:DISL:PPTA:1,2014-04-05T14:00:00Z,30.2791,-87.5561,1.265,7.04,1111122 
DISL,ioos:station:DISL:PPTA:1,2014-04-05T14:30:00Z,30.2791,-87.5561,1.257,7.16,1111122 
DISL,ioos:station:DISL:PPTA:1,2014-04-05T15:00:00Z,30.2791,-87.5561,1.331,7.31,1111122 
DISL,ioos:station:DISL:PPTA:1,2014-04-05T15:30:00Z,30.2791,-87.5561,1.309,7.49,1111122 
DISL,ioos:station:DISL:PPTA:1,2014-04-05T16:00:00Z,30.2791,-87.5561,1.311,7.53,1111122 
DISL,ioos:station:DISL:PPTA:1,2014-04-05T16:30:00Z,30.2791,-87.5561,1.318,7.42,1111122 
DISL,ioos:station:DISL:PPTA:1,2014-04-05T17:00:00Z,30.2791,-87.5561,1.345,7.24,1111122 
DISL,ioos:station:DISL:PPTA:1,2014-04-05T17:30:00Z,30.2791,-87.5561,1.356,7.5,1111122 
DISL,ioos:station:DISL:PPTA:1,2014-04-05T18:00:00Z,30.2791,-87.5561,1.369,7.36,1111122 
DISL,ioos:station:DISL:PPTA:1,2014-04-05T18:30:00Z,30.2791,-87.5561,1.35,7.31,1111122 
DISL,ioos:station:DISL:PPTA:1,2014-04-05T19:00:00Z,30.2791,-87.5561,1.372,7.47,1111122 
DISL,ioos:station:DISL:PPTA:1,2014-04-05T19:30:00Z,30.2791,-87.5561,1.348,7.54,1111122 
DISL,ioos:station:DISL:PPTA:1,2014-04-05T20:00:00Z,30.2791,-87.5561,1.342,7.42,1111122 
DISL,ioos:station:DISL:PPTA:1,2014-04-05T20:30:00Z,30.2791,-87.5561,1.357,7.58,1111122 
DISL,ioos:station:DISL:PPTA:1,2014-04-05T21:00:00Z,30.2791,-87.5561,1.324,7.5,1111122 
DISL,ioos:station:DISL:PPTA:1,2014-04-05T21:30:00Z,30.2791,-87.5561,1.359,7.39,1111122 
DISL,ioos:station:DISL:PPTA:1,2014-04-05T22:00:00Z,30.2791,-87.5561,1.331,7.49,1111122 
DISL,ioos:station:DISL:PPTA:1,2014-04-05T22:30:00Z,30.2791,-87.5561,1.327,7.84,1111122 
DISL,ioos:station:DISL:PPTA:1,2014-04-05T23:00:00Z,30.2791,-87.5561,1.333,7.73,1111122 
DISL,ioos:station:DISL:PPTA:1,2014-04-05T23:30:00Z,30.2791,-87.5561,1.306,7.54,1111122 
DISL,ioos:station:DISL:PPTA:1,2014-04-06T00:00:00Z,30.2791,-87.5561,1.319,7.97,1111122 
DISL,ioos:station:DISL:PPTA:1,2014-04-06T00:30:00Z,30.2791,-87.5561,1.288,7.76,1111122 
DISL,ioos:station:DISL:PPTA:1,2014-04-06T01:00:00Z,30.2791,-87.5561,1.274,7.74,1111122 
DISL,ioos:station:DISL:PPTA:1,2014-04-06T01:30:00Z,30.2791,-87.5561,1.258,7.7,1111122 
DISL,ioos:station:DISL:PPTA:1,2014-04-06T02:00:00Z,30.2791,-87.5561,1.257,7.73,1111122 
DISL,ioos:station:DISL:PPTA:1,2014-04-06T02:30:00Z,30.2791,-87.5561,1.244,7.53,1111122 
DISL,ioos:station:DISL:PPTA:1,2014-04-06T03:00:00Z,30.2791,-87.5561,1.222,7.72,1111122 
DISL,ioos:station:DISL:PPTA:1,2014-04-06T03:30:00Z,30.2791,-87.5561,1.232,7.75,1111122 
DISL,ioos:station:DISL:PPTA:1,2014-04-06T04:00:00Z,30.2791,-87.5561,1.219,7.77,1111122 
DISL,ioos:station:DISL:PPTA:1,2014-04-06T04:30:00Z,30.2791,-87.5561,1.207,7.74,1111122 
DISL,ioos:station:DISL:PPTA:1,2014-04-06T05:00:00Z,30.2791,-87.5561,1.185,7.84,1111122 
DISL,ioos:station:DISL:PPTA:1,2014-04-06T05:30:00Z,30.2791,-87.5561,1.205,7.74,1111122 
DISL,ioos:station:DISL:PPTA:1,2014-04-06T06:00:00Z,30.2791,-87.5561,1.156,7.52,1111122 
DISL,ioos:station:DISL:PPTA:1,2014-04-06T06:30:00Z,30.2791,-87.5561,1.168,7.6,1111122 
DISL,ioos:station:DISL:PPTA:1,2014-04-06T07:00:00Z,30.2791,-87.5561,1.183,7.6,1111122 
DISL,ioos:station:DISL:PPTA:1,2014-04-06T07:30:00Z,30.2791,-87.5561,1.156,7.47,1111122 
DISL,ioos:station:DISL:PPTA:1,2014-04-06T08:00:00Z,30.2791,-87.5561,1.171,7.54,1111122 
DISL,ioos:station:DISL:PPTA:1,2014-04-06T08:30:00Z,30.2791,-87.5561,1.172,7.21,1111122 
DISL,ioos:station:DISL:PPTA:1,2014-04-06T09:00:00Z,30.2791,-87.5561,1.169,7.45,1111122 
DISL,ioos:station:DISL:PPTA:1,2014-04-06T09:30:00Z,30.2791,-87.5561,1.161,7.33,1111122 
DISL,ioos:station:DISL:PPTA:1,2014-04-06T10:00:00Z,30.2791,-87.5561,1.196,7.35,1111122 
DISL,ioos:station:DISL:PPTA:1,2014-04-06T10:30:00Z,30.2791,-87.5561,1.162,7.18,1111122 
DISL,ioos:station:DISL:PPTA:1,2014-04-06T11:00:00Z,30.2791,-87.5561,1.142,6.46,1111122 
DISL,ioos:station:DISL:PPTA:1,2014-04-06T11:30:00Z,30.2791,-87.5561,1.205,6.92,1111122 
DISL,ioos:station:DISL:PPTA:1,2014-04-06T12:00:00Z,30.2791,-87.5561,1.192,6.49,1111122 
DISL,ioos:station:DISL:PPTA:1,2014-04-06T12:30:00Z,30.2791,-87.5561,1.165,6.82,1111122 
DISL,ioos:station:DISL:PPTA:1,2014-04-06T13:00:00Z,30.2791,-87.5561,1.213,6.92,1111122 
DISL,ioos:station:DISL:PPTA:1,2014-04-06T13:30:00Z,30.2791,-87.5561,1.211,6.7,1111122 
DISL,ioos:station:DISL:PPTA:1,2014-04-06T14:00:00Z,30.2791,-87.5561,1.2,6.86,1111122 
DISL,ioos:station:DISL:PPTA:1,2014-04-06T14:30:00Z,30.2791,-87.5561,1.24,7.38,1111122 
DISL,ioos:station:DISL:PPTA:1,2014-04-06T15:00:00Z,30.2791,-87.5561,1.237,7.21,1111122 
DISL,ioos:station:DISL:PPTA:1,2014-04-06T15:30:00Z,30.2791,-87.5561,1.272,6.93,1111122 